DELTA 1 DEB, 7019

Orbit data source: Space-Track

DELTA 1 DEB, 7019 is space debris in SSO originally from a launch on Tue, 06 Nov 1973 UTC launched from the Air Force Western Test Range (AFWTR). Debris objects in space refer to the collection of defunct objects orbiting the Earth. Examples of debris include non-operational satellites, rocket bodies, and fragments generated from explosions, collisions, or faulty payload assembly.

Loading next visibility...
Identifier
7019, 1973-086K
Orbit
SSO
Country
Flag of USUS
Related business
Manufacturer
Unknown
Mission
Spacecraft
Bus & Motor
Unknown
Mass
Unknown
Launch date (UTC)
1973-11-06 (52 years ago)
Launch vehicle
Unknown
Launch site
Air Force Western Test Range (AFWTR)
Object type
Payload
Rocket body
Debris
Shape & HBR
Unknown shape, 0.5 m
Radar Cross Section
Medium (>0.1 m² and <1 m²)

Expand to show TLE details & history
Last TLE update: 1 day ago

TLE from 1 day ago
0 DELTA 1 DEB
1  7019U 73086K   25306.51272455  .00000044  00000-0  64983-3 0  9999
2  7019 102.2212 314.1356 0065630 263.2962 220.3726 12.42779553356698
Epoch: 2025-11-02T12:18Z
TLE epoch observation values (Epoch: 2025-11-02T12:18:19.401Z)
Latitude
54.9734°
Longitude
-74.56268°
Altitude
1,543.224 km
Speed
7.082 km/s
True Right ascension
10h 08m 10s
True Declination
54° 49' 40"
Sunlit
Object was in daylight at epoch
Visualization orbit readout
Latitude
Unknown
Longitude
Unknown
Altitude
Unknown
Speed
Unknown
Apparent Right ascension
Unknown
Apparent Declination
Unknown
Sunlit
N/A
Visualization observer readout
Local Sidereal Time
11:53:14
Azimuth
Unknown
Elevation
Unknown
Doppler factor
Unknown
Orbital elements
Apogee altitude
1,544.081 km
Perigee altitude
1,440.772 km
Semi-major axis
7,870.564 km
Eccentricity
0.00656
Inclination
102.2212°
RAAN
314.1356°
Arg. of periapsis
263.2962°
True anomaly
219.88848°
Mean anomaly
220.3726°
Eccentric anomaly
220.13024°
Mean motion
3.10838 °/min
Orbital period
115.82 mins
BSTAR
0.00064983
Loading maneuver chart data...
Computing Atmospheric mass density...
Loading historical data...
Loading historical data...
Loading historical data...
Loading historical data...
Loading historical data...
Loading historical data...
Loading historical data...

Documentation

Showing up to 5 results
|